Knoxville, TN

8:09 AM EDT on April 25, 2017 (GMT -0400)
McGhee Tyson

Weather History for KTYS - February, 2014

Change the Weather History Date:

Friday, February 7, 2014

  Actual Average Record
Temperature  
Mean Temperature 33 °F 40 °F  
Max Temperature 39 °F 50 °F 71 °F (1925)
Min Temperature 27 °F 31 °F 3 °F (1984)
Degree Days  
Heating Degree Days 32 25  
Month to date heating degree days 181 176  
Since 1 July heating degree days 2570 2438  
Cooling Degree Days 0 0  
Month to date cooling degree days 0 0  
Year to date cooling degree days 0 0  
Moisture  
Dew Point 21 °F    
Average Humidity 60    
Maximum Humidity 75    
Minimum Humidity 44    
Precipitation  
Precipitation 0.00 in 0.15 in 1.97 in (1892)
Month to date precipitation 2.58 1.07  
Year to date precipitation 5.70 5.39  
Snow  
Snow 0.00 in 0.00 in - ()
Month to date snowfall 0.0 0.5  
Since 1 July snowfall 5.0 4.0  
Snow Depth 0.00 in    
Sea Level Pressure  
Sea Level Pressure 30.34 in    
Wind  
Wind Speed 5 mph (North)    
Max Wind Speed 12 mph    
Max Gust Speed 14 mph    
Visibility 10 miles    
Events      
T = Trace of Precipitation, MM = Missing Value Source: NWS Daily Summary

Daily Weather History Graph

Daily Weather History Graph

Search for Another Location

Airport or City:

Trip Planner

Search our weather history database for the weather conditions in past years. The results will help you decide how hot, cold, wet, or windy it might be!

Date:

Astronomy

Feb. 07, 2014 Rise Set
Actual Time 7:31 AM EST 6:09 PM EST
Civil Twilight 7:04 AM EST 6:36 PM EST
Nautical Twilight 6:34 AM EST 7:06 PM EST
Astronomical Twilight 6:04 AM EST 7:36 PM EST
Moon 12:22 PM EST (2/7) 1:44 AM EST (2/7)
Length of Visible Light 11h 31m
Length of Day
10h 38m
First Quarter, 59% of the Moon is Illuminated
Feb 7
First Quarter
Feb 14
Full
Feb 22
Last Quarter
Mar 1
New
Mar 8
First Quarter

Hourly Weather History & Observations

Time (EST) Temp. Windchill Dew Point Humidity Pressure Visibility Wind Dir Wind Speed Gust Speed Precip Events Conditions
12:15 AM 30.0 °F 24.1 °F 21.0 °F 69% 30.30 in 10.0 mi North 5.8 mph - N/A   Overcast
12:53 AM 28.9 °F 22.8 °F 21.0 °F 72% 30.31 in 10.0 mi NNW 5.8 mph - N/A   Overcast
1:53 AM 28.0 °F 20.8 °F 21.0 °F 75% 30.31 in 10.0 mi North 6.9 mph - N/A   Overcast
2:53 AM 28.0 °F 20.0 °F 19.9 °F 72% 30.34 in 10.0 mi North 8.1 mph - N/A   Overcast
3:53 AM 28.0 °F 19.3 °F 19.9 °F 72% 30.35 in 10.0 mi North 9.2 mph - N/A   Overcast
4:53 AM 27.0 °F 18.7 °F 19.9 °F 75% 30.35 in 10.0 mi NNE 8.1 mph - N/A   Overcast
5:53 AM 27.0 °F 18.0 °F 19.9 °F 75% 30.34 in 10.0 mi NNE 9.2 mph - N/A   Overcast
6:53 AM 27.0 °F 18.7 °F 19.0 °F 72% 30.35 in 10.0 mi NNE 8.1 mph - N/A   Overcast
7:53 AM 27.0 °F 21.6 °F 19.9 °F 75% 30.38 in 10.0 mi NNW 4.6 mph - N/A   Overcast
8:53 AM 28.0 °F 20.0 °F 19.9 °F 72% 30.39 in 10.0 mi North 8.1 mph - N/A   Overcast
9:53 AM 28.9 °F 25.2 °F 21.0 °F 72% 30.40 in 10.0 mi NE 3.5 mph - N/A   Overcast
10:53 AM 30.0 °F - 21.9 °F 72% 30.41 in 10.0 mi Calm Calm - N/A   Overcast
11:53 AM 32.0 °F 27.5 °F 21.9 °F 66% 30.41 in 10.0 mi NW 4.6 mph - N/A   Overcast
12:53 PM 34.0 °F - 23.0 °F 64% 30.35 in 10.0 mi Calm Calm - N/A   Mostly Cloudy
1:53 PM 36.0 °F - 23.0 °F 59% 30.34 in 10.0 mi Calm Calm - N/A   Mostly Cloudy
2:53 PM 37.9 °F 33.5 °F 23.0 °F 55% 30.32 in 10.0 mi WNW 5.8 mph - N/A   Mostly Cloudy
3:53 PM 37.9 °F - 21.9 °F 53% 30.32 in 10.0 mi Calm Calm - N/A   Mostly Cloudy
4:53 PM 39.0 °F - 19.9 °F 46% 30.32 in 10.0 mi Calm Calm - N/A   Mostly Cloudy
5:53 PM 36.0 °F 32.1 °F 19.9 °F 52% 30.30 in 10.0 mi NNE 4.6 mph - N/A   Mostly Cloudy
6:53 PM 35.1 °F 30.1 °F 19.9 °F 54% 30.30 in 10.0 mi NNE 5.8 mph - N/A   Mostly Cloudy
7:53 PM 35.1 °F 32.2 °F 21.0 °F 57% 30.31 in 10.0 mi North 3.5 mph - N/A   Overcast
8:53 PM 35.1 °F 32.2 °F 21.0 °F 57% 30.31 in 10.0 mi NNE 3.5 mph - N/A   Overcast
9:53 PM 34.0 °F 29.8 °F 21.9 °F 61% 30.30 in 10.0 mi NNW 4.6 mph - N/A   Overcast
10:53 PM 34.0 °F 29.8 °F 23.0 °F 64% 30.27 in 10.0 mi NNE 4.6 mph - N/A   Overcast
11:53 PM 34.0 °F 29.8 °F 23.0 °F 64% 30.29 in 10.0 mi North 4.6 mph - N/A   Overcast